Погода в Трещевском

Россия / Кемеровская область (Кузбасс)     55°07′29″N   85°46′01″E
темп.,
°C
ветер,
м/с
пор.,
м/с
влажн.,
%
обл.,
%
осадки,
мм/ч
давл.,
гПа
погр.,
м
1 марта, пн
пн101:00−11юв4895100 1.4 1025316
04:00−11юв4895100 0.4 1021262
07:00−9юв4796100 1.6 1018263
10:00−7ююв5895100 1.5 1013430
13:00−4ю4794100 2.3 1011549
16:00−2ю5996100 1.8 1009583
19:00−2зюз61194100 3.7 1009685
22:00−10ссв3596100 0.4 1009122
2 марта, вт
вт201:00−11ссв2496100 0.8 1010128
04:00−13с2496100 0.3 1010116
07:00−15с2296100 0.6 101257
10:00−14ссз2295100 0.2 1013141
13:00−12зсз239199 0.4 1014316
16:00−10зсз2389100 0.2 1015342
19:00−12ссз1296100 0.4 101520
22:00−15с119789 0.1 101620
3 марта, ср
ср301:00−18ссз0110085 0.1 101620
04:00−17зсз119891 0.0 101620
07:00−17сз119692 0.1 101820
10:00−14сз009494 0.1 101999
13:00−12юз238996 0.1 1020326
16:00−10юз1188100 0.1 1020305
19:00−13юв119696 0.1 102221
22:00−12юз359599 0.1 1024119
4 марта, чт
чт401:00−14ююз369593 0.1 1025109
04:00−13ю479286 0.0 1025171
07:00−15ю5119288 0.0 1026219
10:00−11ю6138793 0.0 1024622
13:00−7ю7128896 0.6 1023728
16:00−5ююз71283100 0.1 1021881
19:00−5ю61484100 0.1 1021735
22:00−6ююз51484100 0.0 1020598
5 марта, пт
пт501:00−6ююз51382100 0.0 1019528
04:00−8ю41382100 0.0 1017423
07:00−8ююв4118294 0.0 1016295
10:00−6ююв41083100 0.0 1013336
13:00−2ю41091100 0.8 1012749
16:00−3юз71196100 1.6 1012877
19:00−2зюз61288100 2.5 1015803
22:00−5юз5139061 0.0 1019361